ONEWEB-0050, 45453

Orbit data source: Space-Track

ONEWEB-0050, 45453 is a payload satellite owned by One Web (UK) in LEO that was launched on Sat, 21 Mar 2020 UTC via a SOYUZ-2-1B launch vehicle from the Tyuratam Missile And Space Complex (TTMTR). Payload-class satellites include a variety of spacecraft equipped with specific instruments for various scientific and technological missions. These include communications satellites like Starlink; space stations such as the ISS; scientific satellites like the Hubble; Earth observation satellites from companies like Planet Labs, Umbra, and HawkEye 360; GPS; miniature CubeSats for education and research; and military/defense satellites.

Loading next visibility...
Identifier
45453, 2020-020AF
Orbit
LEO
Country
Flag of UKUK
Related business
Manufacturer
One Web
Mission
Partially operational Commercial Communications
Bus & Motor
ARROW, Unknown motor
Mass
148 kg wet, ~140 kg dry
Launch date (UTC)
2020-03-21 (6 years ago)
Launch vehicle
SOYUZ-2-1B
Launch site
Tyuratam Missile And Space Complex (TTMTR)
Object type
Payload
Rocket body
Debris
Shape & HBR
Trap Box + 2 Pan, 6.7 m
Radar Cross Section
3.464 m², Large (>1 m²)

Expand to show TLE details & history
Last TLE update: 7 hours ago

TLE from 7 hours ago
0 ONEWEB-0050
1 45453U 20020AF  26127.85441044  .00000942  00000-0  95011-4 0  9998
2 45453  88.9292 238.6845 0005898 110.2471 249.9393 14.90193652334372
Epoch: 2026-05-07T20:30Z
TLE epoch observation values (Epoch: 2026-05-07T20:30:21.062Z)
Latitude
0.00005°
Longitude
65.40217°
Altitude
601.898 km
Speed
7.558 km/s
True Right ascension
15h 54m 44s
True Declination
0° 00' 00"
Sunlit
Object was in full shadow at epoch
Visualization orbit readout
Latitude
Unknown
Longitude
Unknown
Altitude
Unknown
Speed
Unknown
Apparent Right ascension
Unknown
Apparent Declination
Unknown
Sunlit
N/A
Visualization observer readout
Local Sidereal Time
11:36:40
Azimuth
Unknown
Elevation
Unknown
Doppler factor
Unknown
Orbital elements
Apogee altitude
598.295 km
Perigee altitude
590.071 km
Semi-major axis
6,972.32 km
Eccentricity
0.00059
Inclination
88.9292°
RAAN
238.6845°
Arg. of periapsis
110.2471°
True anomaly
249.87583°
Mean anomaly
249.9393°
Eccentric anomaly
249.90756°
Mean motion
3.72801 °/min
Orbital period
96.57 mins
BSTAR
0.000095011
Loading maneuver chart data...
Computing Atmospheric mass density...
Loading historical data...
Loading historical data...
Loading historical data...
Loading historical data...
Loading historical data...
Loading historical data...
Loading historical data...

Documentation

Showing up to 5 results
|